Location: Bathurst
(33.4193°S, 149.5775°E)
Time: 09:51:51
(UTC+10:00)

Vanguard 1 Rocket - Pass Details

Date: 18 June 2021
Orbit: 650 x 4226 km, 34.3° (Epoch: 02 August)

Event Time Altitude Azimuth Distance (km) Brightness Sun altitude
Rises 13:50:11 0° 258° (WSW) 5,566 11.6 27.7°
Reaches altitude 10° 13:54:38 10° 259° (W) 3,997 11.0 27.2°
Maximum altitude 14:03:52 74° 342° (NNW) 1,077 8.5 26.3°
Drops below altitude 10° 14:09:04 10° 66° (ENE) 2,326 9.5 25.7°
Sets 14:11:03 0° 68° (ENE) 3,108 10.1 25.5°
